Grub im Wienerwald
Wetterdaten: aktuell Montag, 22.01.2018 06:51
Datum Zeit Temp. A. Feuchte A. Luftdruck Regen Wind Richtung Richtung Sonnenschein UV Solar Taupunkt Windchill Windben
22.01.2018 06:51 -5,0 C 94 % 1016,7 hPa 0,0 l/m 0,0 km/h N-NW 337 0 min 0,0 UV-I 0 W/m -5,8 C -5,0 C 1,6 km/h
22.01.2018 06:48 -5,0 C 94 % 1016,7 hPa 0,0 l/m 0,0 km/h N-NW 337 0 min 0,0 UV-I 0 W/m -5,8 C -5,0 C 0,0 km/h
22.01.2018 06:45 -5,1 C 94 % 1016,7 hPa 0,0 l/m 0,0 km/h N-NW 337 0 min 0,0 UV-I 0 W/m -5,9 C -5,1 C 0,0 km/h
22.01.2018 06:42 -5,1 C 94 % 1016,8 hPa 0,0 l/m 0,0 km/h N-NW 337 0 min 0,0 UV-I 0 W/m -5,9 C -5,1 C 0,0 km/h
22.01.2018 06:39 -5,1 C 94 % 1016,8 hPa 0,0 l/m 0,0 km/h N-NW 337 0 min 0,0 UV-I 0 W/m -5,9 C -5,1 C 0,0 km/h
22.01.2018 06:36 -5,1 C 94 % 1016,8 hPa 0,0 l/m 0,0 km/h N-NW 337 0 min 0,0 UV-I 0 W/m -5,9 C -5,1 C 0,0 km/h
22.01.2018 06:33 -5,2 C 94 % 1016,8 hPa 0,0 l/m 0,0 km/h N-NW 337 0 min 0,0 UV-I 0 W/m -6,0 C -5,2 C 0,0 km/h
22.01.2018 06:30 -5,2 C 94 % 1016,8 hPa 0,0 l/m 0,0 km/h N-NW 337 0 min 0,0 UV-I 0 W/m -6,0 C -5,2 C 0,0 km/h
22.01.2018 06:27 -5,2 C 94 % 1016,8 hPa 0,0 l/m 0,0 km/h N-NW 337 0 min 0,0 UV-I 0 W/m -6,0 C -5,2 C 1,6 km/h
22.01.2018 06:24 -5,2 C 93 % 1016,8 hPa 0,0 l/m 0,0 km/h N-NW 337 0 min 0,0 UV-I 0 W/m -6,1 C -5,2 C 0,0 km/h
22.01.2018 06:21 -5,3 C 94 % 1016,8 hPa 0,0 l/m 0,0 km/h N-NW 337 0 min 0,0 UV-I 0 W/m -6,1 C -5,3 C 0,0 km/h
22.01.2018 06:18 -5,3 C 94 % 1016,7 hPa 0,0 l/m 0,0 km/h N-NW 337 0 min 0,0 UV-I 0 W/m -6,1 C -5,3 C 0,0 km/h
22.01.2018 06:15 -5,4 C 93 % 1016,7 hPa 0,0 l/m 0,0 km/h N-NW 337 0 min 0,0 UV-I 0 W/m -6,3 C -5,4 C 0,0 km/h
22.01.2018 06:12 -5,4 C 93 % 1016,8 hPa 0,0 l/m 0,0 km/h N-NW 337 0 min 0,0 UV-I 0 W/m -6,3 C -5,4 C 0,0 km/h
22.01.2018 06:09 -5,5 C 93 % 1016,9 hPa 0,0 l/m 0,2 km/h N-NW 337 0 min 0,0 UV-I 0 W/m -6,4 C -5,5 C 1,6 km/h
22.01.2018 06:06 -5,6 C 93 % 1017,0 hPa 0,0 l/m 0,5 km/h N-NW 337 0 min 0,0 UV-I 0 W/m -6,5 C -5,6 C 3,2 km/h
22.01.2018 06:03 -5,7 C 93 % 1017,0 hPa 0,0 l/m 0,2 km/h N-NW 337 0 min 0,0 UV-I 0 W/m -6,6 C -5,7 C 1,6 km/h
22.01.2018 06:00 -5,7 C 93 % 1017,0 hPa 0,0 l/m 0,0 km/h N-NW 337 0 min 0,0 UV-I 0 W/m -6,6 C -5,7 C 0,0 km/h
22.01.2018 05:57 -5,8 C 93 % 1017,1 hPa 0,0 l/m 0,0 km/h N-NW 337 0 min 0,0 UV-I 0 W/m -6,7 C -5,8 C 1,6 km/h
22.01.2018 05:54 -5,8 C 93 % 1017,1 hPa 0,0 l/m 0,2 km/h N-NW 337 0 min 0,0 UV-I 0 W/m -6,7 C -5,8 C 1,6 km/h
22.01.2018 05:51 -5,9 C 92 % 1017,1 hPa 0,0 l/m 0,0 km/h N-NW 337 0 min 0,0 UV-I 0 W/m -7,0 C -5,9 C 0,0 km/h
22.01.2018 05:48 -5,9 C 92 % 1017,3 hPa 0,0 l/m 0,0 km/h N-NW 337 0 min 0,0 UV-I 0 W/m -7,0 C -5,9 C 0,0 km/h
22.01.2018 05:45 -6,0 C 92 % 1017,3 hPa 0,0 l/m 1,4 km/h N-NW 337 0 min 0,0 UV-I 0 W/m -7,1 C -6,0 C 3,2 km/h
22.01.2018 05:42 -6,1 C 92 % 1017,4 hPa 0,0 l/m 3,0 km/h N-NW 337 0 min 0,0 UV-I 0 W/m -7,2 C -6,1 C 6,4 km/h
22.01.2018 05:39 -6,1 C 92 % 1017,5 hPa 0,0 l/m 1,8 km/h NW 326 0 min 0,0 UV-I 0 W/m -7,2 C -6,1 C 8,0 km/h
22.01.2018 05:36 -6,1 C 91 % 1017,6 hPa 0,0 l/m 1,0 km/h NW 320 0 min 0,0 UV-I 0 W/m -7,3 C -6,1 C 3,2 km/h
22.01.2018 05:33 -6,1 C 91 % 1017,7 hPa 0,0 l/m 1,3 km/h NW 320 0 min 0,0 UV-I 0 W/m -7,3 C -6,1 C 4,8 km/h
22.01.2018 05:30 -6,2 C 91 % 1017,7 hPa 0,0 l/m 1,3 km/h NW 320 0 min 0,0 UV-I 0 W/m -7,4 C -6,2 C 3,2 km/h
22.01.2018 05:27 -6,2 C 91 % 1017,7 hPa 0,0 l/m 0,3 km/h NW 320 0 min 0,0 UV-I 0 W/m -7,4 C -6,2 C 1,6 km/h
22.01.2018 05:24 -6,2 C 91 % 1017,8 hPa 0,0 l/m 0,0 km/h NW 320 0 min 0,0 UV-I 0 W/m -7,4 C -6,2 C 0,0 km/h
22.01.2018 05:21 -6,2 C 91 % 1017,7 hPa 0,0 l/m 0,0 km/h NW 320 0 min 0,0 UV-I 0 W/m -7,4 C -6,2 C 0,0 km/h
22.01.2018 05:18 -6,1 C 91 % 1017,7 hPa 0,0 l/m 0,0 km/h NW 320 0 min 0,0 UV-I 0 W/m -7,3 C -6,1 C 0,0 km/h
22.01.2018 05:15 -6,1 C 91 % 1017,8 hPa 0,0 l/m 0,0 km/h NW 320 0 min 0,0 UV-I 0 W/m -7,3 C -6,1 C 0,0 km/h
22.01.2018 05:12 -6,1 C 90 % 1017,9 hPa 0,0 l/m 0,0 km/h NW 320 0 min 0,0 UV-I 0 W/m -7,5 C -6,1 C 0,0 km/h
22.01.2018 05:09 -6,1 C 90 % 1017,9 hPa 0,0 l/m 0,0 km/h NW 320 0 min 0,0 UV-I 0 W/m -7,5 C -6,1 C 0,0 km/h
22.01.2018 05:06 -6,0 C 90 % 1017,9 hPa 0,0 l/m 0,0 km/h NW 320 0 min 0,0 UV-I 0 W/m -7,4 C -6,0 C 1,6 km/h
22.01.2018 05:03 -5,9 C 90 % 1017,8 hPa 0,0 l/m 0,0 km/h NW 320 0 min 0,0 UV-I 0 W/m -7,3 C -5,9 C 0,0 km/h
22.01.2018 05:00 -5,9 C 90 % 1017,9 hPa 0,0 l/m 0,0 km/h NW 320 0 min 0,0 UV-I 0 W/m -7,3 C -5,9 C 0,0 km/h
22.01.2018 04:57 -5,9 C 90 % 1018,0 hPa 0,0 l/m 0,0 km/h NW 320 0 min 0,0 UV-I 0 W/m -7,3 C -5,9 C 0,0 km/h
22.01.2018 04:54 -5,8 C 90 % 1018,0 hPa 0,0 l/m 0,0 km/h NW 320 0 min 0,0 UV-I 0 W/m -7,2 C -5,8 C 0,0 km/h
22.01.2018 04:51 -5,8 C 90 % 1018,0 hPa 0,0 l/m 0,0 km/h NW 320 0 min 0,0 UV-I 0 W/m -7,2 C -5,8 C 0,0 km/h
22.01.2018 04:48 -5,8 C 90 % 1018,0 hPa 0,0 l/m 0,1 km/h NW 320 0 min 0,0 UV-I 0 W/m -7,2 C -5,8 C 1,6 km/h
22.01.2018 04:45 -5,7 C 89 % 1018,1 hPa 0,0 l/m 0,5 km/h NW 320 0 min 0,0 UV-I 0 W/m -7,2 C -5,7 C 3,2 km/h
22.01.2018 04:42 -5,7 C 89 % 1018,1 hPa 0,0 l/m 0,2 km/h NW 320 0 min 0,0 UV-I 0 W/m -7,2 C -5,7 C 1,6 km/h
22.01.2018 04:39 -5,6 C 89 % 1018,0 hPa 0,0 l/m 0,1 km/h NW 320 0 min 0,0 UV-I 0 W/m -7,1 C -5,6 C 1,6 km/h
22.01.2018 04:36 -5,6 C 89 % 1017,9 hPa 0,0 l/m 0,0 km/h NW 320 0 min 0,0 UV-I 0 W/m -7,1 C -5,6 C 0,0 km/h
22.01.2018 04:33 -5,4 C 89 % 1017,9 hPa 0,0 l/m 0,4 km/h NW 320 0 min 0,0 UV-I 0 W/m -6,9 C -5,4 C 1,6 km/h
22.01.2018 04:30 -5,4 C 89 % 1018,0 hPa 0,0 l/m 0,0 km/h NW 320 0 min 0,0 UV-I 0 W/m -6,9 C -5,4 C 0,0 km/h
22.01.2018 04:27 -5,3 C 89 % 1018,0 hPa 0,0 l/m 0,0 km/h NW 320 0 min 0,0 UV-I 0 W/m -6,8 C -5,3 C 0,0 km/h
22.01.2018 04:24 -5,3 C 89 % 1017,9 hPa 0,0 l/m 0,0 km/h NW 320 0 min 0,0 UV-I 0 W/m -6,8 C -5,3 C 0,0 km/h
22.01.2018 04:21 -5,2 C 89 % 1017,9 hPa 0,0 l/m 0,0 km/h NW 320 0 min 0,0 UV-I 0 W/m -6,7 C -5,2 C 0,0 km/h
22.01.2018 04:18 -5,1 C 89 % 1017,8 hPa 0,0 l/m 0,0 km/h NW 320 0 min 0,0 UV-I 0 W/m -6,6 C -5,1 C 0,0 km/h
22.01.2018 04:15 -5,1 C 89 % 1017,8 hPa 0,0 l/m 0,0 km/h NW 320 0 min 0,0 UV-I 0 W/m -6,6 C -5,1 C 0,0 km/h
22.01.2018 04:12 -5,0 C 89 % 1017,7 hPa 0,0 l/m 0,0 km/h NW 320 0 min 0,0 UV-I 0 W/m -6,5 C -5,0 C 0,0 km/h
22.01.2018 04:09 -4,9 C 89 % 1017,6 hPa 0,0 l/m 0,0 km/h NW 320 0 min 0,0 UV-I 0 W/m -6,4 C -4,9 C 0,0 km/h
22.01.2018 04:06 -4,8 C 89 % 1017,5 hPa 0,0 l/m 0,0 km/h NW 320 0 min 0,0 UV-I 0 W/m -6,3 C -4,8 C 0,0 km/h
22.01.2018 04:03 -4,7 C 88 % 1017,6 hPa 0,0 l/m 0,0 km/h NW 320 0 min 0,0 UV-I 0 W/m -6,4 C -4,7 C 0,0 km/h
22.01.2018 04:00 -4,7 C 89 % 1017,5 hPa 0,0 l/m 0,0 km/h NW 320 0 min 0,0 UV-I 0 W/m -6,2 C -4,7 C 0,0 km/h
22.01.2018 03:57 -4,5 C 89 % 1017,7 hPa 0,0 l/m 0,0 km/h NW 320 0 min 0,0 UV-I 0 W/m -6,0 C -4,5 C 0,0 km/h
22.01.2018 03:54 -4,4 C 89 % 1017,7 hPa 0,0 l/m 0,0 km/h NW 320 0 min 0,0 UV-I 0 W/m -5,9 C -4,4 C 0,0 km/h
22.01.2018 03:51 -4,4 C 88 % 1017,8 hPa 0,0 l/m 0,0 km/h NW 320 0 min 0,0 UV-I 0 W/m -6,1 C -4,4 C 0,0 km/h
22.01.2018 03:48 -4,3 C 88 % 1017,8 hPa 0,0 l/m 0,0 km/h NW 320 0 min 0,0 UV-I 0 W/m -6,0 C -4,3 C 0,0 km/h
22.01.2018 03:45 -4,2 C 88 % 1017,9 hPa 0,0 l/m 0,0 km/h NW 320 0 min 0,0 UV-I 0 W/m -5,9 C -4,2 C 0,0 km/h
22.01.2018 03:42 -4,2 C 88 % 1017,9 hPa 0,0 l/m 0,0 km/h NW 320 0 min 0,0 UV-I 0 W/m -5,9 C -4,2 C 0,0 km/h
22.01.2018 03:39 -4,1 C 88 % 1018,0 hPa 0,0 l/m 0,0 km/h NW 320 0 min 0,0 UV-I 0 W/m -5,8 C -4,1 C 0,0 km/h
22.01.2018 03:36 -3,9 C 88 % 1018,1 hPa 0,0 l/m 0,0 km/h NW 320 0 min 0,0 UV-I 0 W/m -5,6 C -3,9 C 0,0 km/h
22.01.2018 03:33 -3,8 C 88 % 1018,2 hPa 0,0 l/m 0,0 km/h NW 320 0 min 0,0 UV-I 0 W/m -5,5 C -3,8 C 0,0 km/h
22.01.2018 03:30 -3,8 C 88 % 1018,1 hPa 0,0 l/m 0,0 km/h NW 320 0 min 0,0 UV-I 0 W/m -5,5 C -3,8 C 0,0 km/h
22.01.2018 03:27 -3,7 C 88 % 1018,1 hPa 0,0 l/m 0,0 km/h NW 320 0 min 0,0 UV-I 0 W/m -5,4 C -3,7 C 1,6 km/h
22.01.2018 03:24 -3,6 C 88 % 1018,2 hPa 0,0 l/m 0,0 km/h NW 320 0 min 0,0 UV-I 0 W/m -5,3 C -3,6 C 0,0 km/h
22.01.2018 03:21 -3,5 C 88 % 1018,1 hPa 0,0 l/m 0,0 km/h NW 320 0 min 0,0 UV-I 0 W/m -5,2 C -3,5 C 0,0 km/h
22.01.2018 03:18 -3,4 C 88 % 1018,1 hPa 0,0 l/m 0,0 km/h NW 320 0 min 0,0 UV-I 0 W/m -5,1 C -3,4 C 0,0 km/h
22.01.2018 03:15 -3,3 C 88 % 1018,0 hPa 0,0 l/m 0,0 km/h NW 320 0 min 0,0 UV-I 0 W/m -5,0 C -3,3 C 0,0 km/h
22.01.2018 03:12 -3,2 C 88 % 1017,9 hPa 0,0 l/m 0,0 km/h NW 320 0 min 0,0 UV-I 0 W/m -4,9 C -3,2 C 0,0 km/h
22.01.2018 03:09 -3,1 C 88 % 1018,0 hPa 0,0 l/m 0,1 km/h NW 320 0 min 0,0 UV-I 0 W/m -4,8 C -3,1 C 1,6 km/h
22.01.2018 03:06 -3,0 C 88 % 1018,0 hPa 0,0 l/m 1,6 km/h NW 320 0 min 0,0 UV-I 0 W/m -4,7 C -3,0 C 3,2 km/h
22.01.2018 03:03 -2,8 C 88 % 1018,2 hPa 0,0 l/m 1,0 km/h NW 320 0 min 0,0 UV-I 0 W/m -4,5 C -2,8 C 3,2 km/h
22.01.2018 03:00 -2,8 C 88 % 1018,3 hPa 0,0 l/m 0,9 km/h NW 320 0 min 0,0 UV-I 0 W/m -4,5 C -2,8 C 1,6 km/h
22.01.2018 02:57 -2,7 C 88 % 1018,3 hPa 0,0 l/m 0,9 km/h NW 320 0 min 0,0 UV-I 0 W/m -4,4 C -2,7 C 3,2 km/h
22.01.2018 02:54 -2,6 C 88 % 1018,3 hPa 0,0 l/m 0,1 km/h NW 320 0 min 0,0 UV-I 0 W/m -4,3 C -2,6 C 1,6 km/h
22.01.2018 02:51 -2,6 C 88 % 1018,3 hPa 0,0 l/m 0,0 km/h NW 320 0 min 0,0 UV-I 0 W/m -4,3 C -2,6 C 0,0 km/h
22.01.2018 02:48 -2,5 C 88 % 1018,4 hPa 0,0 l/m 0,0 km/h NW 320 0 min 0,0 UV-I 0 W/m -4,2 C -2,5 C 0,0 km/h
22.01.2018 02:45 -2,4 C 88 % 1018,5 hPa 0,0 l/m 0,0 km/h NW 320 0 min 0,0 UV-I 0 W/m -4,1 C -2,4 C 0,0 km/h
22.01.2018 02:42 -2,3 C 88 % 1018,4 hPa 0,0 l/m 0,0 km/h NW 320 0 min 0,0 UV-I 0 W/m -4,0 C -2,3 C 0,0 km/h
22.01.2018 02:39 -2,3 C 88 % 1018,3 hPa 0,0 l/m 0,0 km/h NW 320 0 min 0,0 UV-I 0 W/m -4,0 C -2,3 C 0,0 km/h
22.01.2018 02:36 -2,2 C 88 % 1018,2 hPa 0,0 l/m 0,4 km/h NW 320 0 min 0,0 UV-I 0 W/m -3,9 C -2,2 C 3,2 km/h
22.01.2018 02:33 -2,2 C 88 % 1018,2 hPa 0,0 l/m 0,1 km/h NW 320 0 min 0,0 UV-I 0 W/m -3,9 C -2,2 C 1,6 km/h
22.01.2018 02:30 -2,2 C 88 % 1018,2 hPa 0,0 l/m 0,7 km/h NW 320 0 min 0,0 UV-I 0 W/m -3,9 C -2,2 C 3,2 km/h
22.01.2018 02:27 -2,2 C 88 % 1018,1 hPa 0,0 l/m 0,0 km/h NW 320 0 min 0,0 UV-I 0 W/m -3,9 C -2,2 C 0,0 km/h
22.01.2018 02:24 -2,1 C 88 % 1018,2 hPa 0,0 l/m 2,4 km/h NW 320 0 min 0,0 UV-I 0 W/m -3,8 C -2,1 C 6,4 km/h
22.01.2018 02:21 -2,1 C 88 % 1018,3 hPa 0,0 l/m 3,8 km/h NW 320 0 min 0,0 UV-I 0 W/m -3,8 C -2,1 C 8,0 km/h
_ Min-Zeit 05:21 02:03 07:00 - 02:27 - - - - - 05:09 17:54 02:27
Minimum _ -6,2 C 88 % 1002,7 hPa - 0,0 km/h - - - - - -7,5 C -8,0 C 0,0 km/h
_ Max-Zeit 11:24 08:15 02:45 10:54 17:54 - - 10:51 10:57 12:30 09:57 11:27 18:00
Maximum _ 0,9 C 100 % 1018,5 hPa 0,2 l/m 17,2 km/h
N-NW
- - 3 min 0,8 UV-I 283 W/m 0,1 C 0,6 C 33,8 km/h
N-NW
Durchschnitt _ -1,0 C 92 % 1012,5 hPa #3,4 l/m 6,7 km/h NW - #0 min. 0,0 UV-I 0 W/m -2,1 C -2,7 C 12,1 km/h
Schulla EDV